Home   Weather   Lethbridge   Past weeks
Flag for Canada

Past Weather in Lethbridge, Alberta, Canada — Yesterday and Last 2 Weeks

Now
59 °F

Passing clouds.


Feels Like: 55 °F
Forecast: 80 / 50 °F
Wind: 20 mph from West

Location: Lethbridge

Current Time: Sep 15, 2019 at 2:01:50 am

Latest Report: Sep 15, 2019 at 1:00 am


Visibility: 9 mi

Pressure: 29.77 "Hg (26.84 "Hg at 872m altitude)

Humidity: 51%

Dew Point: 41 °F

Location of LethbridgeLocation

Past Weather in Lethbridge — Graph

°F

Lethbridge Temperature Yesterday

Maximum temperature yesterday: 68 °F (at 1:00 pm)
Minimum temperature yesterday: 50 °F (at 3:00 am)
Average temperature yesterday: 60 °F

High & Low Weather Summary for the Past Weeks

 TemperatureHumidityPressure
High82 °F (Sep 3, 3:00 pm)100% (Aug 31, 6:00 am)30.27 "Hg (Aug 31, 6:00 am)
Low39 °F (Sep 12, 7:00 am)20% (Sep 3, 3:00 pm)29.76 "Hg (Sep 4, 6:00 am)
Average58 °F72%30.03 "Hg
* Reported Aug 31 1:00 am — Sep 15 1:00 am, Lethbridge. Weather by CustomWeather, © 2019

Note: Actual official high and low records may vary slightly from our data, if they occured in-between our weather recording intervals... More about our weather records

Advertising

Lethbridge Weather History for the Previous 24 Hours

Scroll right to see more
 ConditionsComfort  
Time TempWeatherWind HumidityBarometerVisibility
1:00 am
Sun, Sep 15
59 °FPassing clouds.20 mph51%29.77 "Hg9 mi
12:00 am63 °FPartly cloudy.22 mph42%29.78 "Hg9 mi
11:00 pm
Sat, Sep 14
63 °FMostly cloudy.29 mph39%29.77 "Hg9 mi
10:00 pm57 °FPartly cloudy.7 mph55%29.80 "Hg20 mi
9:00 pm61 °FPartly cloudy.9 mph52%29.82 "Hg20 mi
8:00 pm63 °FMostly cloudy.18 mph49%29.81 "Hg60 mi
7:00 pm66 °FCloudy.20 mph43%29.80 "Hg60 mi
6:00 pm66 °FBroken clouds.25 mph43%29.81 "Hg60 mi
5:00 pm68 °FPartly sunny.28 mph40%29.81 "Hg60 mi
4:00 pm68 °FPartly sunny.24 mph43%29.82 "Hg60 mi
3:00 pm68 °FBroken clouds.25 mph43%29.82 "Hg60 mi
2:00 pm68 °FBroken clouds.22 mph40%29.83 "Hg60 mi
1:00 pm68 °FBroken clouds.23 mph40%29.83 "Hg60 mi
12:00 pm66 °FPartly sunny.23 mph43%29.83 "Hg60 mi
11:00 am66 °FBroken clouds.18 mph43%29.85 "Hg60 mi
10:00 am63 °FPartly sunny.22 mph45%29.85 "Hg60 mi
9:00 am61 °FBroken clouds.18 mph48%29.86 "Hg60 mi
8:00 am55 °FPartly sunny.14 mph59%29.88 "Hg60 mi
7:00 am52 °FPassing clouds.10 mph67%29.86 "Hg60 mi
6:00 am50 °FPassing clouds.12 mph71%29.87 "Hg20 mi
5:00 am54 °FClear.15 mph63%29.88 "Hg9 mi
4:00 am50 °FClear.13 mph71%29.89 "Hg9 mi
3:00 am50 °FClear.12 mph71%29.90 "Hg9 mi
2:00 am52 °FClear.12 mph67%29.91 "Hg9 mi
Weather by CustomWeather, © 2019

See weather overview